ECHOSTAR 23

导读 | 星芒AI

ECHOSTAR 23 是一颗由美国EchoStar公司运营的通信卫星,主要用于提供直接到户(DTH)的卫星电视服务。该卫星于2015年发射,定位在119.5°W轨道位置,服务于北美地区,特别是美国和加拿大的DirecTV用户。ECHOSTAR 23 搭载了先进的Ku波段转发器,提供高清和超高清电视频道传输,增强了用户体验和网络容量。作为DirecTV卫星系统的一部分,它在现代卫星广播中发挥着重要作用。

基本信息
目录编号:
42070
目录名称:
ECHOSTAR 23
国际标识:
2017-014A
轨道中心:
EARTH
卫星名称:
ECHOSTAR 23
卫星全名:
--
卫星状态:
在轨 (已飞行3194 天)
发射日期:
2017-03-16 UTC
国别 :
美国 (US)
星等 :
--
轨道信息
数据来源 国际轨道数据 AOE轨道数据
星历时间 2025-12-12T19:14:46+0800
22小时前
查看轨道信息
2025-12-11T16:00:00+0800
2天前
查看轨道信息
半长轴 42164.644km 42164.616km
偏心率 0.000192 0.000181
轨道倾角 0.018° 0.012°
近地点辐角 267.874° 247.371°
升交点赤经 352.505° 7.792°
平近点角 239.832° 195.234°
近地点 35778.413km 35778.849km
远地点 35794.605km 35794.113km
周期 1436.092分钟 1436.091分钟
每日圈数 1.002721 1.002722
详细信息
使用方式:
暂无
2D轨道图
3D轨道图
轨道高度分析图
轨道倾角分析图
轨道综合分析图
查看轨道综合分析图